GW5362 Weather Reports


Display with metric or nautical units.
time (UTC)temp
F
wind
direction
speed
MPH
gust
MPH
rain 1hr
in
rain 24hr
in
rain mn
in
humidity
%
barometer
mb
20260504151006 68 221 1.0 10.0 0.00 0.00 0.00 43 1014.0
20260504150504 67 244 2.0 10.0 0.00 0.00 0.00 41 1014.1
20260504141003 63 193 1.0 6.0 0.00 0.00 0.00 50 1014.1
20260504140503 62 187 0.0 6.0 0.00 0.00 0.00 51 1014.0
20260504130504 55 146 0.0 4.0 0.00 0.00 0.00 63 1014.4
20260504110504 43 235 0.0 0.0 0.00 0.00 0.00 86 1015.3
20260504100503 43 235 0.0 0.0 0.00 0.00 0.00 82 1015.1
20260504082007 43 235 0.0 0.0 0.00 0.00 0.00 84 1015.5
20260504081524 43 235 0.0 0.0 0.00 0.00 0.00 84 1015.4
20260504081004 43 235 0.0 0.0 0.00 0.00 0.00 84 1015.4
20260504080507 43 235 0.0 0.0 0.00 0.00 0.00 84 1015.5
20260504050501 41 235 0.0 0.0 0.00 0.00 0.00 80 1015.8
20260504050008 41 235 0.0 0.0 0.00 0.00 0.00 80 1015.8
20260504045505 41 235 0.0 0.0 0.00 0.00 0.00 81 1015.8
20260504045000 41 235 0.0 0.0 0.00 0.00 0.00 80 1015.8
20260504044506 41 235 0.0 0.0 0.00 0.00 0.00 79 1015.8
20260504044004 41 235 0.0 0.0 0.00 0.00 0.00 79 1015.9
20260504043501 41 235 0.0 0.0 0.00 0.00 0.00 78 1015.8
20260504043006 41 235 0.0 0.0 0.00 0.00 0.00 78 1015.8
20260504042503 41 235 0.0 0.0 0.00 0.00 0.00 78 1015.8
20260504042003 42 235 0.0 0.0 0.00 0.00 0.00 77 1015.6
20260504041513 42 235 0.0 0.0 0.00 0.00 0.00 77 1015.6
20260504041001 42 235 0.0 0.0 0.00 0.00 0.00 77 1015.7
20260504040504 42 235 0.0 0.0 0.00 0.00 0.00 76 1015.7
20260504040021 42 235 0.0 0.0 0.00 0.00 0.00 76 1015.7
20260504035503 42 235 0.0 0.0 0.00 0.00 0.00 75 1015.7
20260504035003 42 235 0.0 0.0 0.00 0.00 0.00 75 1015.7
20260504034517 42 235 0.0 0.0 0.00 0.00 0.00 75 1015.8
20260504034007 43 235 0.0 0.0 0.00 0.00 0.00 74 1015.8
20260504033501 43 235 0.0 0.0 0.00 0.00 0.00 73 1015.8
20260504033006 43 235 0.0 0.0 0.00 0.00 0.00 73 1015.8
20260504032504 43 235 0.0 0.0 0.00 0.00 0.00 72 1015.8
20260504032004 43 235 0.0 0.0 0.00 0.00 0.00 72 1015.7
20260504031510 44 235 0.0 0.0 0.00 0.00 0.00 72 1015.7
20260504031005 44 235 0.0 0.0 0.00 0.00 0.00 71 1015.7
20260504030507 44 235 0.0 0.0 0.00 0.00 0.00 71 1015.7
20260504030005 44 235 0.0 0.0 0.00 0.00 0.00 70 1015.6
20260504025503 44 235 0.0 0.0 0.00 0.00 0.00 69 1015.6
20260504025006 45 235 0.0 0.0 0.00 0.00 0.00 69 1015.6
20260504024503 45 235 0.0 0.0 0.00 0.00 0.00 69 1015.7
20260504024004 45 235 0.0 0.0 0.00 0.00 0.00 67 1015.6
20260504023504 45 235 0.0 0.0 0.00 0.00 0.00 67 1015.6
20260504023024 45 235 0.0 0.0 0.00 0.00 0.00 67 1015.6
20260504022503 46 235 0.0 0.0 0.00 0.00 0.00 66 1015.5
20260504022004 46 235 0.0 0.0 0.00 0.00 0.00 64 1015.5
20260504021508 46 235 0.0 0.0 0.00 0.00 0.00 64 1015.5
20260504021002 47 235 0.0 0.0 0.00 0.00 0.00 65 1015.4
20260504020504 47 235 0.0 0.0 0.00 0.00 0.00 64 1015.4
20260504020013 48 235 0.0 0.0 0.00 0.00 0.00 63 1015.3
20260504015504 48 235 0.0 0.0 0.00 0.00 0.00 62 1015.3
20260504015004 48 235 0.0 0.0 0.00 0.00 0.00 62 1015.3
20260504014514 49 235 0.0 0.0 0.00 0.00 0.00 62 1015.2
20260504014006 49 235 0.0 0.0 0.00 0.00 0.00 61 1015.2
20260504013506 50 235 0.0 0.0 0.00 0.00 0.00 59 1015.1
20260504013017 50 235 0.0 0.0 0.00 0.00 0.00 57 1014.9
20260504012504 50 235 0.0 0.0 0.00 0.00 0.00 57 1014.9
20260504012008 50 235 0.0 0.0 0.00 0.00 0.00 56 1014.8
20260504011506 51 235 0.0 0.0 0.00 0.00 0.00 55 1014.7
20260504011003 51 235 0.0 0.0 0.00 0.00 0.00 54 1014.7
20260504010505 51 235 0.0 0.0 0.00 0.00 0.00 52 1014.7
20260504010010 52 235 0.0 0.0 0.00 0.00 0.00 52 1014.8
20260504005504 52 235 0.0 0.0 0.00 0.00 0.00 52 1014.8
20260504005003 53 235 0.0 0.0 0.00 0.00 0.00 52 1014.8
20260504004518 53 235 0.0 0.0 0.00 0.00 0.00 52 1014.7
20260504004003 54 235 0.0 0.0 0.00 0.00 0.00 48 1014.6
20260504003503 55 235 0.0 0.0 0.00 0.00 0.00 46 1014.6
20260504003017 55 235 0.0 0.0 0.00 0.00 0.00 47 1014.5
20260504002508 55 235 0.0 0.0 0.00 0.00 0.00 45 1014.5
20260504002005 56 235 0.0 0.0 0.00 0.00 0.00 44 1014.5
20260504001520 56 235 0.0 0.0 0.00 0.00 0.00 43 1014.5
20260504001007 57 235 0.0 0.0 0.00 0.00 0.00 42 1014.5
20260504000503 57 235 0.0 0.0 0.00 0.00 0.00 42 1014.5
20260504000015 57 235 0.0 0.0 0.00 0.00 0.00 41 1014.5
20260503235503 57 235 0.0 0.0 0.00 0.00 0.00 40 1014.5
20260503235004 58 235 0.0 0.0 0.00 0.00 0.00 39 1014.4
20260503234517 58 235 0.0 0.0 0.00 0.00 0.00 38 1014.4
20260503234004 59 235 0.0 0.0 0.00 0.00 0.00 38 1014.4
20260503233503 59 235 0.0 0.0 0.00 0.00 0.00 39 1014.4
20260503233016 59 235 0.0 0.0 0.00 0.00 0.00 38 1014.4
20260503232503 59 235 0.0 3.0 0.00 0.00 0.00 37 1014.4
20260503232007 59 235 0.0 3.0 0.00 0.00 0.00 34 1014.3
20260503231524 60 232 0.0 3.0 0.00 0.00 0.00 35 1014.2
20260503231005 60 219 0.0 7.0 0.00 0.00 0.00 34 1014.2
20260503230508 60 218 1.0 7.0 0.00 0.00 0.00 35 1014.1
20260503230025 60 113 0.0 6.0 0.00 0.00 0.00 35 1014.1
20260503225506 60 202 1.0 6.0 0.00 0.00 0.00 32 1014.1
20260503225004 60 189 0.0 5.0 0.00 0.00 0.00 33 1014.1
20260503224507 61 236 0.0 6.0 0.00 0.00 0.00 39 1014.2
20260503224006 61 219 1.0 6.0 0.00 0.00 0.00 37 1014.2
20260503223501 61 244 0.0 4.0 0.00 0.00 0.00 34 1014.2
20260503223013 61 244 0.0 7.0 0.00 0.00 0.00 33 1014.2
20260503222506 61 249 1.0 7.0 0.00 0.00 0.00 37 1014.3
20260503222006 61 45 0.0 5.0 0.00 0.00 0.00 35 1014.2
20260503221515 61 220 0.0 6.0 0.00 0.00 0.00 36 1014.2
20260503221006 61 221 1.0 6.0 0.00 0.00 0.00 34 1014.3
20260503220509 61 188 0.0 7.0 0.00 0.00 0.00 34 1014.4
20260503220012 61 191 0.0 7.0 0.00 0.00 0.00 32 1014.4
20260503215506 61 26 1.0 7.0 0.00 0.00 0.00 34 1014.3
20260503215009 61 165 0.0 5.0 0.00 0.00 0.00 36 1014.3
20260503214539 61 228 0.0 10.0 0.00 0.00 0.00 33 1014.3
20260503214009 61 187 1.0 10.0 0.00 0.00 0.00 32 1014.3
20260503213511 61 166 0.0 6.0 0.00 0.00 0.00 33 1014.3
20260503213012 61 60 1.0 11.0 0.00 0.00 0.00 33 1014.5
20260503212503 61 208 3.0 11.0 0.00 0.00 0.00 32 1014.5
20260503212004 61 252 2.0 11.0 0.00 0.00 0.00 32 1014.5
20260503211516 61 216 3.0 8.0 0.00 0.00 0.00 31 1014.5
20260503211006 61 225 2.0 8.0 0.00 0.00 0.00 34 1014.4
20260503210503 61 208 1.0 8.0 0.00 0.00 0.00 33 1014.4
20260503210022 61 194 0.0 7.0 0.00 0.00 0.00 34 1014.4
20260503205506 61 195 1.0 8.0 0.00 0.00 0.00 33 1014.4
20260503205004 61 218 2.0 8.0 0.00 0.00 0.00 32 1014.5
20260503204519 61 204 1.0 7.0 0.00 0.00 0.00 34 1014.5
20260503204007 61 223 3.0 9.0 0.00 0.00 0.00 33 1014.7
20260503203510 61 190 2.0 11.0 0.00 0.00 0.00 32 1014.7
20260503203008 61 238 5.0 11.0 0.00 0.00 0.00 34 1014.6
20260503202503 60 269 0.0 10.0 0.00 0.00 0.00 35 1014.5
20260503202003 60 181 1.0 10.0 0.00 0.00 0.00 33 1014.6
20260503201516 60 22 1.0 8.0 0.00 0.00 0.00 32 1014.7
20260503201007 60 50 1.0 11.0 0.00 0.00 0.00 34 1014.7
20260503200509 60 80 3.0 11.0 0.00 0.00 0.00 33 1014.9
20260503200008 60 223 1.0 13.0 0.00 0.00 0.00 35 1014.9
20260503195507 60 197 5.0 13.0 0.00 0.00 0.00 33 1015.1
20260503195009 60 225 2.0 9.0 0.00 0.00 0.00 34 1015.1
20260503194506 60 200 3.0 11.0 0.00 0.00 0.00 36 1015.2
20260503194004 60 207 3.0 11.0 0.00 0.00 0.00 35 1015.4
20260503193503 59 219 2.0 6.0 0.00 0.00 0.00 37 1015.4
20260503193006 59 135 1.0 6.0 0.00 0.00 0.00 37 1015.4
20260503192502 59 219 0.0 6.0 0.00 0.00 0.00 38 1015.5
20260503192005 58 226 0.0 6.0 0.00 0.00 0.00 37 1015.6
20260503191516 58 219 0.0 12.0 0.00 0.00 0.00 36 1015.7
20260503191003 58 217 4.0 12.0 0.00 0.00 0.00 37 1015.8
20260503190504 58 73 1.0 9.0 0.00 0.00 0.00 38 1015.7
20260503190020 58 216 4.0 10.0 0.00 0.00 0.00 37 1015.8
20260503185506 58 212 2.0 10.0 0.00 0.00 0.00 38 1015.9
20260503185001 58 212 2.0 10.0 0.00 0.00 0.00 37 1016.0
20260503184516 58 224 3.0 10.0 0.00 0.00 0.00 37 1015.9
20260503184009 58 229 3.0 10.0 0.00 0.00 0.00 39 1016.0
20260503183501 58 215 1.0 9.0 0.00 0.00 0.00 38 1015.9
20260503183014 57 203 2.0 9.0 0.00 0.00 0.00 39 1016.2
20260503182505 57 88 3.0 8.0 0.00 0.00 0.00 38 1016.1
20260503182001 57 240 2.0 12.0 0.00 0.00 0.00 39 1016.2
20260503181509 57 254 5.0 12.0 0.00 0.00 0.00 39 1016.2
20260503181004 57 350 2.0 12.0 0.00 0.00 0.00 39 1016.2
20260503180504 57 219 1.0 12.0 0.00 0.00 0.00 40 1016.2
20260503180018 56 200 3.0 11.0 0.00 0.00 0.00 40 1016.2
20260503175507 56 147 1.0 11.0 0.00 0.00 0.00 39 1016.3
20260503175005 56 217 3.0 11.0 0.00 0.00 0.00 40 1016.2
20260503174525 56 234 0.0 8.0 0.00 0.00 0.00 42 1016.3
20260503174002 56 201 2.0 6.0 0.00 0.00 0.00 41 1016.5
20260503173507 56 217 1.0 7.0 0.00 0.00 0.00 42 1016.6
20260503173034 56 212 2.0 7.0 0.00 0.00 0.00 42 1016.6
20260503172509 55 194 2.0 9.0 0.00 0.00 0.00 41 1016.6
20260503172006 55 134 1.0 9.0 0.00 0.00 0.00 41 1016.7
20260503171522 55 79 2.0 12.0 0.00 0.00 0.00 41 1016.7
20260503171001 55 77 1.0 12.0 0.00 0.00 0.00 42 1016.6
20260503170504 55 99 1.0 11.0 0.00 0.00 0.00 40 1016.6